Location: Unspecified
(0.0000°N, 0.0000°E)
Time: 11:13:06
(UTC+02:00)

Meteor PRIRODA - Visible Passes

Search period start: 24 May 2015 00:00
Search period end: 03 June 2015 00:00
Orbit: 502 x 525 km, 97.3° (Epoch: 23 May)

Date Brightness Start Highest point End Pass type
(mag) Time Alt. Az. Time Alt. Az. Time Alt. Az.
24 May 3.7 06:38:42 10° N 06:42:17 53° W 06:43:28 36° SW visible
25 May 3.6 06:23:05 10° NNE 06:26:45 80° E 06:27:43 47° S visible
26 May 4.8 06:07:43 10° NNE 06:11:11 41° E 06:11:58 36° SE visible
27 May 5.7 05:52:41 10° NE 05:55:37 23° E 05:56:12 22° ESE visible
28 May 6.5 05:38:15 10° ENE 05:40:00 13° E 05:40:27 13° ESE visible
28 May 5.3 07:11:31 10° NW 07:13:56 16° W 07:15:23 13° WSW visible
29 May 4.6 06:55:06 10° NNW 06:58:19 28° W 06:59:37 22° WSW visible
30 May 3.8 06:39:08 10° N 06:42:44 52° W 06:43:50 36° SW visible
31 May 3.6 06:23:27 10° NNE 06:27:08 82° E 06:28:03 49° S visible
01 Jun 4.7 06:08:03 10° NNE 06:11:33 43° E 06:12:16 38° SE visible
02 Jun 5.7 05:52:58 10° NE 05:55:57 24° E 05:56:29 23° ESE visible
